| time (UTC) | temp C | wind direction | speed KPH | gust KPH | rain 1hr cm | rain 24hr cm | rain mn cm | humidity % | barometer mb |
| 20260506180019 | 22 | 358 | 11.3 | 25.7 | 0.00 | 0.00 | 0.00 | 27 | 1016.3 |
| 20260506175019 | 22 | 15 | 19.3 | 35.4 | 0.00 | 0.00 | 0.00 | 27 | 1016.2 |
| 20260506174039 | 22 | 18 | 12.9 | 22.5 | 0.00 | 0.00 | 0.00 | 27 | 1016.2 |
| 20260506173019 | 22 | 359 | 9.7 | 19.3 | 0.00 | 0.00 | 0.00 | 27 | 1016.1 |
| 20260506172019 | 22 | 337 | 19.3 | 30.6 | 0.00 | 0.00 | 0.00 | 28 | 1016.1 |
| 20260506171017 | 22 | 341 | 20.9 | 38.6 | 0.00 | 0.00 | 0.00 | 28 | 1016.0 |
| 20260506170019 | 21 | 351 | 19.3 | 29.0 | 0.00 | 0.00 | 0.00 | 28 | 1016.0 |
| 20260506165020 | 21 | 321 | 20.9 | 37.0 | 0.00 | 0.00 | 0.00 | 27 | 1015.9 |
| 20260506164020 | 21 | 331 | 20.9 | 35.4 | 0.00 | 0.00 | 0.00 | 26 | 1016.0 |
| 20260506163018 | 21 | 330 | 22.5 | 35.4 | 0.00 | 0.00 | 0.00 | 26 | 1015.9 |
| 20260506162017 | 20 | 329 | 20.9 | 33.8 | 0.00 | 0.00 | 0.00 | 26 | 1015.8 |
| 20260506161041 | 20 | 325 | 22.5 | 33.8 | 0.00 | 0.00 | 0.00 | 26 | 1015.8 |
| 20260506160018 | 20 | 329 | 19.3 | 30.6 | 0.00 | 0.00 | 0.00 | 26 | 1015.8 |
| 20260506155018 | 20 | 331 | 19.3 | 29.0 | 0.00 | 0.00 | 0.00 | 26 | 1015.8 |
| 20260506154038 | 20 | 331 | 20.9 | 32.2 | 0.00 | 0.00 | 0.00 | 27 | 1015.7 |
| 20260506153019 | 19 | 343 | 19.3 | 29.0 | 0.00 | 0.00 | 0.00 | 27 | 1015.7 |
| 20260506152018 | 19 | 332 | 17.7 | 25.7 | 0.00 | 0.00 | 0.00 | 27 | 1015.6 |
| 20260506151019 | 18 | 333 | 16.1 | 25.7 | 0.00 | 0.00 | 0.00 | 27 | 1015.6 |
| 20260506150140 | 18 | 335 | 16.1 | 29.0 | 0.00 | 0.00 | 0.00 | 27 | 1015.6 |
| 20260506145019 | 18 | 336 | 14.5 | 25.7 | 0.00 | 0.00 | 0.00 | 27 | 1015.6 |
| 20260506144020 | 18 | 328 | 12.9 | 22.5 | 0.00 | 0.00 | 0.00 | 27 | 1015.5 |
| 20260506143020 | 18 | 322 | 9.7 | 17.7 | 0.00 | 0.00 | 0.00 | 28 | 1015.5 |
| 20260506142018 | 17 | 312 | 6.4 | 14.5 | 0.00 | 0.00 | 0.00 | 29 | 1015.4 |
| 20260506141019 | 17 | 314 | 6.4 | 12.9 | 0.00 | 0.00 | 0.00 | 29 | 1015.4 |
| 20260506140020 | 17 | 316 | 4.8 | 11.3 | 0.00 | 0.00 | 0.00 | 29 | 1015.3 |
| 20260506135020 | 17 | 298 | 4.8 | 12.9 | 0.00 | 0.00 | 0.00 | 29 | 1015.1 |
| 20260506134017 | 17 | 305 | 3.2 | 8.0 | 0.00 | 0.00 | 0.00 | 30 | 1015.0 |
| 20260506133018 | 17 | 315 | 4.8 | 12.9 | 0.00 | 0.00 | 0.00 | 30 | 1014.9 |
| 20260506132028 | 16 | 315 | 4.8 | 8.0 | 0.00 | 0.00 | 0.00 | 31 | 1014.7 |
| 20260506131028 | 16 | 323 | 3.2 | 6.4 | 0.00 | 0.00 | 0.00 | 33 | 1014.6 |
| 20260506130029 | 15 | 312 | 3.2 | 8.0 | 0.00 | 0.00 | 0.00 | 33 | 1014.6 |
| 20260506125028 | 15 | 326 | 3.2 | 4.8 | 0.00 | 0.00 | 0.00 | 34 | 1014.5 |
| 20260506124029 | 15 | 322 | 3.2 | 4.8 | 0.00 | 0.00 | 0.00 | 34 | 1014.3 |
| 20260506123029 | 15 | 327 | 3.2 | 6.4 | 0.00 | 0.00 | 0.00 | 34 | 1014.1 |
| 20260506122029 | 16 | 334 | 4.8 | 6.4 | 0.00 | 0.00 | 0.00 | 32 | 1014.1 |
| 20260506121029 | 16 | 337 | 4.8 | 6.4 | 0.00 | 0.00 | 0.00 | 32 | 1014.1 |
| 20260506120021 | 16 | 328 | 4.8 | 8.0 | 0.00 | 0.00 | 0.00 | 31 | 1014.0 |
| 20260506115030 | 16 | 319 | 6.4 | 8.0 | 0.00 | 0.00 | 0.00 | 31 | 1014.0 |
| 20260506114030 | 16 | 307 | 4.8 | 8.0 | 0.00 | 0.00 | 0.00 | 31 | 1013.9 |
| 20260506113030 | 15 | 315 | 1.6 | 4.8 | 0.00 | 0.00 | 0.00 | 32 | 1013.8 |
| 20260506112020 | 15 | 319 | 4.8 | 8.0 | 0.00 | 0.00 | 0.00 | 31 | 1013.8 |
| 20260506111042 | 16 | 319 | 3.2 | 8.0 | 0.00 | 0.00 | 0.00 | 31 | 1013.7 |
| 20260506110041 | 16 | 316 | 4.8 | 9.7 | 0.00 | 0.00 | 0.00 | 30 | 1013.6 |
| 20260506105021 | 16 | 324 | 4.8 | 8.0 | 0.00 | 0.00 | 0.00 | 30 | 1013.5 |
| 20260506104031 | 16 | 318 | 4.8 | 9.7 | 0.00 | 0.00 | 0.00 | 30 | 1013.5 |
| 20260506103021 | 16 | 314 | 6.4 | 9.7 | 0.00 | 0.00 | 0.00 | 30 | 1013.4 |
| 20260506102020 | 16 | 312 | 6.4 | 8.0 | 0.00 | 0.00 | 0.00 | 30 | 1013.3 |
| 20260506101018 | 16 | 315 | 4.8 | 8.0 | 0.00 | 0.00 | 0.00 | 30 | 1013.1 |
| 20260506100019 | 15 | 330 | 1.6 | 4.8 | 0.00 | 0.00 | 0.00 | 31 | 1013.0 |
| 20260506095019 | 15 | 322 | 4.8 | 6.4 | 0.00 | 0.00 | 0.00 | 31 | 1012.9 |
| 20260506094018 | 16 | 321 | 3.2 | 8.0 | 0.00 | 0.00 | 0.00 | 31 | 1012.8 |
| 20260506093018 | 16 | 320 | 4.8 | 8.0 | 0.00 | 0.00 | 0.00 | 30 | 1012.8 |
| 20260506092019 | 16 | 317 | 4.8 | 9.7 | 0.00 | 0.00 | 0.00 | 30 | 1012.8 |
| 20260506091022 | 16 | 321 | 4.8 | 8.0 | 0.00 | 0.00 | 0.00 | 30 | 1012.8 |
| 20260506090022 | 16 | 316 | 4.8 | 8.0 | 0.00 | 0.00 | 0.00 | 30 | 1012.7 |
| 20260506085020 | 16 | 317 | 4.8 | 6.4 | 0.00 | 0.00 | 0.00 | 29 | 1012.8 |
| 20260506084022 | 16 | 313 | 4.8 | 8.0 | 0.00 | 0.00 | 0.00 | 30 | 1012.8 |
| 20260506083019 | 16 | 316 | 4.8 | 8.0 | 0.00 | 0.00 | 0.00 | 30 | 1012.9 |
| 20260506082022 | 16 | 315 | 4.8 | 8.0 | 0.00 | 0.00 | 0.00 | 30 | 1012.9 |
| 20260506081042 | 16 | 317 | 3.2 | 9.7 | 0.00 | 0.00 | 0.00 | 30 | 1012.9 |
| 20260506073023 | 16 | 321 | 3.2 | 8.0 | 0.00 | 0.00 | 0.00 | 30 | 1012.7 |
| 20260506072024 | 16 | 322 | 1.6 | 8.0 | 0.00 | 0.00 | 0.00 | 31 | 1012.7 |
| 20260506071020 | 15 | 330 | 0.0 | 3.2 | 0.00 | 0.00 | 0.00 | 31 | 1012.7 |
| 20260506062021 | 17 | 315 | 1.6 | 3.2 | 0.00 | 0.00 | 0.00 | 29 | 1012.3 |
| 20260506061041 | 17 | 303 | 1.6 | 4.8 | 0.00 | 0.00 | 0.00 | 28 | 1012.2 |
| 20260506051024 | 17 | 308 | 1.6 | 4.8 | 0.00 | 0.00 | 0.00 | 28 | 1011.7 |
| 20260506045024 | 17 | 284 | 3.2 | 4.8 | 0.00 | 0.00 | 0.00 | 28 | 1011.5 |
| 20260506044023 | 17 | 324 | 3.2 | 6.4 | 0.00 | 0.00 | 0.00 | 29 | 1011.4 |
| 20260506043023 | 17 | 305 | 1.6 | 4.8 | 0.00 | 0.00 | 0.00 | 29 | 1011.3 |
| 20260506042023 | 17 | 310 | 1.6 | 4.8 | 0.00 | 0.00 | 0.00 | 29 | 1011.2 |
| 20260506041024 | 17 | 317 | 1.6 | 6.4 | 0.00 | 0.00 | 0.00 | 30 | 1011.1 |
| 20260506040019 | 18 | 280 | 0.0 | 1.6 | 0.00 | 0.00 | 0.00 | 30 | 1010.9 |
| 20260506035019 | 18 | 262 | 0.0 | 3.2 | 0.00 | 0.00 | 0.00 | 30 | 1010.7 |
| 20260506034018 | 18 | 266 | 1.6 | 3.2 | 0.00 | 0.00 | 0.00 | 29 | 1010.5 |
| 20260506033019 | 18 | 220 | 3.2 | 4.8 | 0.00 | 0.00 | 0.00 | 28 | 1010.4 |
| 20260506032020 | 18 | 0.0 | 0.0 | 0.00 | 0.00 | 0.00 | 29 | 1010.2 | |
| 20260506031020 | 19 | 213 | 4.8 | 6.4 | 0.00 | 0.00 | 0.00 | 28 | 1010.0 |
| 20260506030020 | 19 | 204 | 4.8 | 8.0 | 0.00 | 0.00 | 0.00 | 28 | 1009.8 |
| 20260506025019 | 20 | 197 | 6.4 | 9.7 | 0.00 | 0.00 | 0.00 | 28 | 1009.7 |
| 20260506024019 | 20 | 191 | 8.0 | 11.3 | 0.00 | 0.00 | 0.00 | 28 | 1009.6 |
| 20260506023020 | 20 | 191 | 6.4 | 9.7 | 0.00 | 0.00 | 0.00 | 26 | 1009.5 |
| 20260506022017 | 20 | 191 | 9.7 | 12.9 | 0.00 | 0.00 | 0.00 | 26 | 1009.4 |
| 20260506021017 | 20 | 193 | 9.7 | 14.5 | 0.00 | 0.00 | 0.00 | 25 | 1009.2 |
| 20260506020041 | 20 | 189 | 8.0 | 14.5 | 0.00 | 0.00 | 0.00 | 23 | 1009.1 |
| 20260506015021 | 21 | 187 | 9.7 | 12.9 | 0.00 | 0.00 | 0.00 | 22 | 1009.0 |
| 20260506014018 | 21 | 189 | 9.7 | 17.7 | 0.00 | 0.00 | 0.00 | 21 | 1009.0 |
| 20260506013019 | 21 | 186 | 9.7 | 16.1 | 0.00 | 0.00 | 0.00 | 21 | 1009.0 |
| 20260506012039 | 21 | 192 | 8.0 | 12.9 | 0.00 | 0.00 | 0.00 | 21 | 1008.9 |
| 20260506011018 | 21 | 183 | 8.0 | 12.9 | 0.00 | 0.00 | 0.00 | 21 | 1008.9 |
| 20260506010018 | 21 | 196 | 8.0 | 12.9 | 0.00 | 0.00 | 0.00 | 21 | 1008.9 |
| 20260506005019 | 21 | 200 | 8.0 | 14.5 | 0.00 | 0.00 | 0.00 | 21 | 1008.8 |
| 20260506004039 | 21 | 201 | 6.4 | 11.3 | 0.00 | 0.00 | 0.00 | 21 | 1008.8 |
| 20260506003019 | 21 | 176 | 3.2 | 11.3 | 0.00 | 0.00 | 0.00 | 21 | 1008.6 |
| 20260506002040 | 21 | 179 | 6.4 | 17.7 | 0.00 | 0.00 | 0.00 | 21 | 1008.6 |
| 20260506001019 | 21 | 191 | 8.0 | 16.1 | 0.00 | 0.00 | 0.00 | 22 | 1008.6 |
| 20260506000020 | 21 | 134 | 4.8 | 11.3 | 0.00 | 0.00 | 0.00 | 22 | 1008.6 |
| 20260505235019 | 21 | 184 | 4.8 | 16.1 | 0.00 | 0.00 | 0.00 | 22 | 1008.6 |
| 20260505234040 | 21 | 177 | 4.8 | 12.9 | 0.00 | 0.00 | 0.00 | 22 | 1008.6 |
| 20260505233040 | 22 | 174 | 6.4 | 25.7 | 0.00 | 0.00 | 0.00 | 21 | 1008.6 |
| 20260505232018 | 22 | 241 | 3.2 | 9.7 | 0.00 | 0.00 | 0.00 | 21 | 1008.6 |
| 20260505231018 | 21 | 191 | 4.8 | 12.9 | 0.00 | 0.00 | 0.00 | 21 | 1008.8 |
| 20260505230021 | 21 | 345 | 11.3 | 19.3 | 0.00 | 0.00 | 0.00 | 23 | 1009.0 |
| 20260505225020 | 21 | 306 | 4.8 | 11.3 | 0.00 | 0.00 | 0.00 | 23 | 1009.1 |
| 20260505224018 | 20 | 179 | 6.4 | 14.5 | 0.00 | 0.00 | 0.00 | 23 | 1009.1 |
| 20260505223038 | 20 | 28 | 4.8 | 16.1 | 0.00 | 0.00 | 0.00 | 24 | 1009.2 |
| 20260505222018 | 20 | 186 | 6.4 | 12.9 | 0.00 | 0.00 | 0.00 | 24 | 1009.3 |
| 20260505221018 | 21 | 150 | 4.8 | 14.5 | 0.00 | 0.00 | 0.00 | 23 | 1009.3 |
| 20260505220100 | 21 | 163 | 6.4 | 12.9 | 0.00 | 0.00 | 0.00 | 23 | 1009.5 |
| 20260505215019 | 20 | 177 | 6.4 | 12.9 | 0.00 | 0.00 | 0.00 | 24 | 1009.5 |
| 20260505214019 | 20 | 164 | 8.0 | 14.5 | 0.00 | 0.00 | 0.00 | 24 | 1009.7 |
| 20260505213019 | 20 | 170 | 6.4 | 14.5 | 0.00 | 0.00 | 0.00 | 24 | 1009.7 |
| 20260505212019 | 20 | 123 | 6.4 | 20.9 | 0.00 | 0.00 | 0.00 | 25 | 1009.9 |
| 20260505211037 | 20 | 174 | 9.7 | 24.1 | 0.00 | 0.00 | 0.00 | 25 | 1010.0 |
| 20260505210020 | 20 | 22 | 8.0 | 12.9 | 0.00 | 0.00 | 0.00 | 26 | 1010.1 |
| 20260505205019 | 20 | 179 | 8.0 | 20.9 | 0.00 | 0.00 | 0.00 | 25 | 1010.1 |
| 20260505204020 | 20 | 163 | 9.7 | 19.3 | 0.00 | 0.00 | 0.00 | 25 | 1010.1 |
| 20260505203017 | 20 | 169 | 4.8 | 14.5 | 0.00 | 0.00 | 0.00 | 26 | 1010.0 |
| 20260505202017 | 20 | 163 | 6.4 | 20.9 | 0.00 | 0.00 | 0.00 | 26 | 1010.1 |
| 20260505201020 | 20 | 173 | 9.7 | 17.7 | 0.00 | 0.00 | 0.00 | 25 | 1010.1 |
| 20260505195018 | 20 | 173 | 4.8 | 14.5 | 0.00 | 0.00 | 0.00 | 27 | 1010.4 |
| 20260505194018 | 20 | 176 | 9.7 | 16.1 | 0.00 | 0.00 | 0.00 | 26 | 1010.4 |
| 20260505193019 | 20 | 251 | 6.4 | 16.1 | 0.00 | 0.00 | 0.00 | 27 | 1010.5 |
| 20260505192018 | 19 | 175 | 6.4 | 16.1 | 0.00 | 0.00 | 0.00 | 27 | 1010.5 |
| 20260505191019 | 19 | 107 | 6.4 | 14.5 | 0.00 | 0.00 | 0.00 | 27 | 1010.5 |
| 20260505190041 | 19 | 103 | 6.4 | 14.5 | 0.00 | 0.00 | 0.00 | 28 | 1010.6 |
| 20260505185019 | 19 | 176 | 8.0 | 16.1 | 0.00 | 0.00 | 0.00 | 28 | 1010.6 |
| 20260505184019 | 18 | 172 | 6.4 | 16.1 | 0.00 | 0.00 | 0.00 | 29 | 1010.8 |
| 20260505183020 | 18 | 96 | 4.8 | 12.9 | 0.00 | 0.00 | 0.00 | 31 | 1010.7 |
| 20260505182016 | 18 | 190 | 8.0 | 16.1 | 0.00 | 0.00 | 0.00 | 30 | 1010.8 |
| 20260505181021 | 18 | 191 | 6.4 | 16.1 | 0.00 | 0.00 | 0.00 | 31 | 1010.8 |